TimeEST,TemperatureF,Dew PointF,Humidity,Sea Level PressureIn,VisibilityMPH,Wind Direction,Wind SpeedMPH,Gust SpeedMPH,PrecipitationIn,Events,Conditions,WindDirDegrees,DateUTC
12:56 AM,63.0,54.0,72,29.88,-9999.0,WNW,13.8,-,N/A,,Scattered Clouds,290,2013-11-03 04:56:00
1:56 AM,60.1,50.0,69,29.90,-9999.0,WNW,17.3,21.9,N/A,,Clear,300,2013-11-03 05:56:00
1:56 AM,61.0,51.1,70,29.90,-9999.0,North,18.4,26.5,N/A,,Mostly Cloudy,360,2013-11-03 06:56:00
2:56 AM,60.1,48.0,64,29.93,-9999.0,North,16.1,26.5,N/A,,Clear,360,2013-11-03 07:56:00
3:56 AM,59.0,46.9,64,29.96,-9999.0,North,13.8,-,N/A,,Clear,360,2013-11-03 08:56:00
4:56 AM,57.9,46.0,65,29.99,-9999.0,North,13.8,-,N/A,,Clear,350,2013-11-03 09:56:00
5:56 AM,57.0,44.1,62,30.01,-9999.0,North,12.7,-,N/A,,Clear,350,2013-11-03 10:56:00
6:56 AM,57.0,46.9,69,30.05,-9999.0,NNW,11.5,-,N/A,,Clear,340,2013-11-03 11:56:00
7:56 AM,57.9,46.0,65,30.09,-9999.0,NNW,15.0,20.7,N/A,,Clear,340,2013-11-03 12:56:00
8:56 AM,59.0,44.1,58,30.12,-9999.0,NNW,18.4,-,N/A,,Clear,340,2013-11-03 13:56:00
9:56 AM,60.1,41.0,49,30.13,-9999.0,North,18.4,27.6,N/A,,Clear,350,2013-11-03 14:56:00
10:56 AM,61.0,42.1,50,30.15,-9999.0,North,16.1,-,N/A,,Clear,350,2013-11-03 15:56:00
11:56 AM,62.1,42.1,48,30.15,-9999.0,North,13.8,-,N/A,,Clear,360,2013-11-03 16:56:00
12:56 PM,62.1,42.1,48,30.14,-9999.0,NNW,13.8,-,N/A,,Clear,340,2013-11-03 17:56:00
1:56 PM,63.0,41.0,45,30.15,-9999.0,North,13.8,-,N/A,,Clear,350,2013-11-03 18:56:00
2:56 PM,63.0,42.1,46,30.16,-9999.0,North,13.8,-,N/A,,Clear,350,2013-11-03 19:56:00
3:56 PM,63.0,43.0,48,30.18,-9999.0,North,15.0,-,N/A,,Clear,350,2013-11-03 20:56:00
4:56 PM,61.0,42.1,50,30.20,-9999.0,North,12.7,-,N/A,,Clear,360,2013-11-03 21:56:00
5:56 PM,60.1,41.0,49,30.23,-9999.0,North,15.0,-,N/A,,Clear,360,2013-11-03 22:56:00
6:56 PM,59.0,42.1,53,30.26,-9999.0,North,12.7,20.7,N/A,,Clear,10,2013-11-03 23:56:00
7:56 PM,57.9,45.0,62,30.28,-9999.0,NNE,15.0,-,N/A,,Clear,20,2013-11-04 00:56:00
8:56 PM,57.0,45.0,64,30.31,-9999.0,North,16.1,26.5,N/A,,Clear,10,2013-11-04 01:56:00
9:56 PM,55.9,39.0,53,30.34,-9999.0,North,18.4,27.6,N/A,,Clear,10,2013-11-04 02:56:00
10:56 PM,55.0,39.0,55,30.33,-9999.0,NNE,17.3,26.5,N/A,,Clear,20,2013-11-04 03:56:00